[[{"header":{"parameterUnit":"m.s-1","parameterCategory":1,"la1":30.2991,"la2":30.254,"lo1":-89.0895,"lo2":-89.0444,"dy":0.0017,"dx":0.0017,"nx":28,"ny":28,"refTime":"2024-03-03T09:00:00:Z","depth":0,"parameterNumber":2,"parameterNumberName":"U-component_of_WINDS"},"data":[0,0,0,0,0,0,0,0,0,0,0,0,0,0,0,0,0,0,0,0,0,0,0,0,0,0,0,0,0,0,0,0,0,0,0,0,0,0,0,0,0,0,0,0,0,0,0,0,0,0,0,0,0,0,0,0,0,0,-3.1315,-3.1315,0,-3.1316,-3.1317,-3.1317,-3.1255,-3.1253,-3.1251,-3.125,-3.1251,-3.1253,-3.1254,0,0,0,0,0,0,0,0,0,0,0,0,0,-3.1258,-3.126,-3.1315,-3.1315,-3.1315,-3.1316,-3.1317,-3.1317,-3.1255,-3.1253,-3.1251,-3.1249,-3.1251,-3.1253,-3.1254,0,0,0,0,0,0,0,0,0,0,0,0,0,-3.1274,-3.126,-3.1315,-3.1284,-3.1281,-3.1316,-3.1317,-3.1317,-3.1255,-3.1253,-3.125,-3.1248,-3.125,-3.1252,-3.1255,-3.1319,0,0,-3.1262,-3.1263,0,0,0,0,0,0,0,0,-3.1273,-3.1276,-3.1289,-3.1286,-3.1283,-3.1283,-3.1297,-3.1317,-3.1256,-3.1265,-3.125,-3.1247,-3.1264,-3.1265,-3.127,-3.1319,-3.1319,-3.1262,-3.1263,-3.1265,-3.1265,0,0,0,0,0,0,0,-3.1272,-3.1275,-3.1315,-3.1289,-3.1286,-3.1271,-3.127,-3.1301,-3.1278,-3.1264,-3.126,-3.1261,-3.1262,-3.1268,-3.127,-3.1319,-3.1262,-3.1264,-3.1266,-3.1266,-3.1421,-3.1423,0,0,0,0,0,0,-3.1275,-3.1275,-3.1315,-3.1315,-3.1272,-3.1274,-3.1273,-3.1285,-3.1278,-3.1274,-3.1263,-3.1258,-3.1266,-3.1267,-3.127,-3.1344,-3.1264,-3.1267,-3.1268,-3.1418,-3.1421,-3.1424,0,0,0,0,0,0,-3.1274,-3.1279,-3.1315,-3.1294,-3.1297,-3.1277,-3.1292,-3.1287,-3.1293,-3.1277,-3.1273,-3.1274,-3.1264,-3.1267,-3.1307,-3.1343,-3.1268,-3.127,-3.1415,-3.1419,-3.1423,-3.1494,0,0,0,0,0,0,-3.1273,-3.1279,-3.1303,-3.1295,-3.1299,-3.1352,-3.1294,-3.1289,-3.1298,-3.1291,-3.1286,-3.1283,-3.1262,-3.1304,-3.131,-3.1345,-3.1272,-3.1411,-3.1417,-3.1422,-3.1488,-3.15,-3.151,0,0,0,0,0,-3.1271,-3.1322,-3.1304,-3.131,-3.1328,-3.1354,-3.1357,-3.1332,-3.1301,-3.1325,-3.1314,-3.1283,-3.1339,-3.1309,-3.1314,-3.1351,-3.1409,-3.1415,-3.1421,-3.1483,-3.1497,-3.151,0,0,0,0,0,0,-3.1334,-3.1321,-3.1301,-3.1351,-3.1355,-3.1344,-3.1373,-3.1348,-3.136,-3.1353,-3.1322,-3.1322,-3.1367,-3.1364,-3.133,-3.1414,-3.1369,-3.1376,-3.1414,-3.1427,-3.1438,-3.1437,-3.1274,0,0,0,0,0,-3.1354,-3.1377,-3.1364,-3.141,-3.1413,-3.1393,-3.1404,-3.1385,-3.1387,-3.1388,-3.138,-3.1384,-3.1402,-3.1415,-3.1431,-3.1488,-3.1486,-3.1517,-3.1528,-3.1537,-3.1543,-3.1573,-3.1587,-3.1444,-3.1444,-3.1444,0,0,-3.1395,-3.1391,-3.1407,-3.1422,-3.1423,-3.1447,-3.1394,-3.1422,-3.144,-3.1392,-3.1429,-3.1425,-3.1427,-3.1476,-3.1498,-3.1474,-3.1582,-3.1544,-3.1552,-3.1553,-3.1581,-3.1594,-3.1606,-3.1448,-3.1447,-3.1447,0,0,-3.1482,-3.1481,-3.1519,-3.1522,-3.1524,-3.151,-3.152,-3.1514,-3.1509,-3.1547,-3.1512,-3.1533,-3.1565,-3.1568,-3.1574,-3.1666,-3.1637,-3.1672,-3.1728,-3.1758,-3.1769,-3.1779,-3.1811,-3.1823,-3.1679,-3.1679,-3.1679,0,-3.1532,-3.1568,-3.1542,-3.1573,-3.1581,-3.154,-3.1579,-3.1582,-3.1589,-3.1596,-3.1571,-3.1611,-3.161,-3.1659,-3.1682,-3.1688,-3.1698,-3.1671,-3.1769,-3.1779,-3.1788,-3.1818,-3.183,-3.1683,-3.1682,-3.1682,-3.1682,0,-3.163,-3.1655,-3.1686,-3.1694,-3.1706,-3.1741,-3.1721,-3.1737,-3.1718,-3.1708,-3.1747,-3.1745,-3.176,-3.1771,-3.1752,-3.1818,-3.1804,-3.1775,-3.1728,-3.1806,-3.1834,-3.1845,-3.1689,-3.1687,-3.1686,-3.1685,0,0,-3.1753,-3.175,-3.1761,-3.1765,-3.1766,-3.1784,-3.1818,-3.1834,-3.1847,-3.1855,-3.1882,-3.1912,-3.1885,-3.1892,-3.1874,-3.19,-3.1973,-3.1868,-3.1867,-3.1887,-3.2046,-3.2067,-3.2081,-3.1955,-3.1957,-3.1959,-3.2045,0,-3.1837,-3.1893,-3.1873,-3.1931,-3.1954,-3.1917,-3.1947,-3.1951,-3.1943,-3.1962,-3.1953,-3.1975,-3.1938,-3.1942,-3.1967,-3.1959,-3.2004,-3.1953,-3.1979,-3.1981,-3.1978,-3.2095,-3.2117,-3.2199,-3.2056,-3.2058,-3.2059,0,-3.1941,-3.1954,-3.2014,-3.2012,-3.2021,-3.2048,-3.2061,-3.208,-3.2084,-3.2077,-3.2086,-3.2062,-3.2096,-3.2052,-3.2097,-3.2062,-3.2073,-3.207,-3.2073,-3.2073,-3.2023,-3.2097,-3.2224,-3.2236,-3.2077,-3.2075,-3.2074,0,-3.2024,-3.2056,-3.2097,-3.2102,-3.21,-3.212,-3.2121,-3.2122,-3.2134,-3.2146,-3.2153,-3.2169,-3.2177,-3.219,-3.2172,-3.2142,-3.222,-3.2174,-3.2215,-3.2215,-3.2231,-3.223,-3.236,-3.2241,-3.224,-3.224,-3.224,0,-3.2119,-3.2157,-3.2134,-3.2159,-3.2201,-3.2179,-3.2221,-3.2217,-3.222,-3.2244,-3.2214,-3.2236,-3.2212,-3.2233,-3.2219,-3.2259,-3.2263,-3.2258,-3.2253,-3.226,-3.226,-3.2264,-3.2258,-3.2243,-3.2243,-3.2242,-3.2241,0,-3.2217,-3.2204,-3.2246,-3.2242,-3.2242,-3.2274,-3.227,-3.2293,-3.2285,-3.2315,-3.2321,-3.2308,-3.2331,-3.2315,-3.2338,-3.2329,-3.2381,-3.2369,-3.2379,-3.2376,-3.2416,-3.2412,-3.2552,-3.2569,-3.2441,-3.2442,-3.2443,0,-3.2278,-3.2306,-3.2307,-3.2321,-3.2323,-3.2346,-3.2358,-3.2338,-3.2351,-3.236,-3.2382,-3.2403,-3.2418,-3.2457,-3.2449,-3.2467,-3.2455,-3.2503,-3.2457,-3.2463,-3.2454,-3.2452,-3.2455,-3.2511,-3.2513,-3.2514,-3.2515,0,-3.2386,-3.2378,-3.2396,-3.2414,-3.2429,-3.2441,-3.245,-3.2464,-3.2443,-3.246,-3.2484,-3.2496,-3.2521,-3.2542,-3.2557,-3.2558,-3.2533,-3.253,-3.254,-3.2546,-3.255,-3.2547,-3.2403,-3.2526,-3.2525,-3.2524,-3.2524,-3.2523,-3.2466,-3.249,-3.2495,-3.2517,-3.2522,-3.2533,-3.2554,-3.255,-3.2569,-3.2587,-3.2575,-3.2603,-3.2608,-3.2626,-3.2631,-3.2653,-3.2633,-3.2648,-3.2651,-3.2655,-3.266,-3.2549,-3.2655,-3.2655,-3.2655,-3.2655,-3.2654,0,-3.2572,-3.2573,-3.2594,-3.2609,-3.2627,-3.2604,-3.2614,-3.263,-3.2656,-3.2663,-3.268,-3.2708,-3.2729,-3.2724,-3.2743,-3.2761,-3.2751,-3.2767,-3.2764,-3.2765,-3.2677,-3.2666,-3.2775,-3.2775,-3.2775,-3.2775,-3.2775,-3.2775,-3.2628,-3.2668,-3.2662,-3.2705,-3.2706,-3.2734,-3.2742,-3.2752,-3.2758,-3.2791,-3.2808,-3.2805,-3.2808,-3.2827,-3.2846,-3.2844,-3.2852,-3.2872,-3.2866,-3.2783,-3.2771,-3.276,-3.2749,-3.2874,-3.2874,-3.2952,-3.2953,-3.2953]},{"header":{"parameterUnit":"m.s-1","parameterCategory":1,"la1":30.2991,"la2":30.254,"lo1":-89.0895,"lo2":-89.0444,"dy":0.0017,"dx":0.0017,"nx":28,"ny":28,"refTime":"2024-03-03T09:00:00:Z","depth":0,"parameterNumber":3,"parameterNumberName":"V-component_of_WINDS"},"data":[0,0,0,0,0,0,0,0,0,0,0,0,0,0,0,0,0,0,0,0,0,0,0,0,0,0,0,0,0,0,0,0,0,0,0,0,0,0,0,0,0,0,0,0,0,0,0,0,0,0,0,0,0,0,0,0,0,0,0.5842,0.5842,0,0.5817,0.5817,0.5817,0.5822,0.5822,0.5823,0.5823,0.5796,0.5794,0.5793,0,0,0,0,0,0,0,0,0,0,0,0,0,0.5895,0.5894,0.5842,0.5842,0.5842,0.5817,0.5817,0.5817,0.5822,0.5822,0.5823,0.5823,0.5796,0.5795,0.5793,0,0,0,0,0,0,0,0,0,0,0,0,0,0.5871,0.5893,0.5842,0.5841,0.5841,0.5817,0.5817,0.5817,0.5822,0.5822,0.5823,0.5824,0.5796,0.5795,0.5793,0.5768,0,0,0.5787,0.5787,0,0,0,0,0,0,0,0,0.5872,0.5869,0.5842,0.5841,0.5841,0.5823,0.5825,0.58,0.5822,0.5829,0.5823,0.5824,0.5804,0.5802,0.5795,0.5767,0.5765,0.5787,0.5786,0.5786,0.5785,0,0,0,0,0,0,0,0.5874,0.587,0.5832,0.5841,0.5841,0.5842,0.584,0.5821,0.5813,0.5828,0.5829,0.5826,0.5804,0.5797,0.5795,0.5765,0.5787,0.5786,0.5785,0.5784,0.5717,0.5717,0,0,0,0,0,0,0.5876,0.5872,0.5833,0.5832,0.5859,0.5841,0.5838,0.5828,0.5813,0.5811,0.5825,0.5826,0.58,0.5797,0.5794,0.5765,0.5786,0.5784,0.5783,0.5718,0.5717,0.5716,0,0,0,0,0,0,0.5877,0.5873,0.5834,0.5852,0.5847,0.5839,0.5828,0.5827,0.5821,0.5811,0.5809,0.582,0.58,0.5796,0.5775,0.5764,0.5783,0.5781,0.5719,0.5718,0.5717,0.5707,0,0,0,0,0,0,0.5879,0.5873,0.5863,0.5851,0.5846,0.5816,0.5828,0.5826,0.5818,0.5819,0.5805,0.5803,0.58,0.5778,0.5773,0.5762,0.578,0.572,0.5718,0.5717,0.5708,0.5706,0.5704,0,0,0,0,0,0.5881,0.586,0.5863,0.5858,0.5834,0.5815,0.5812,0.5809,0.5817,0.5807,0.5801,0.5804,0.5766,0.5776,0.5771,0.5759,0.572,0.5719,0.5717,0.5709,0.5706,0.5704,0,0,0,0,0,0,0.5869,0.5859,0.5861,0.5836,0.5827,0.5816,0.5803,0.5806,0.5793,0.5794,0.5792,0.5788,0.5767,0.5761,0.5771,0.5735,0.5745,0.5742,0.574,0.5737,0.5735,0.5737,0.5779,0,0,0,0,0,0.5864,0.585,0.5842,0.5821,0.5816,0.5811,0.5802,0.5802,0.5791,0.5787,0.5779,0.5769,0.5755,0.5746,0.5732,0.5708,0.5706,0.5697,0.5695,0.5693,0.5691,0.568,0.5676,0.5711,0.5711,0.5711,0,0,0.5853,0.5846,0.5837,0.5819,0.5811,0.5797,0.5807,0.5791,0.5781,0.5784,0.5765,0.5759,0.5747,0.5725,0.5714,0.5719,0.5681,0.5691,0.569,0.5688,0.5678,0.5675,0.5672,0.571,0.571,0.571,0,0,0.5826,0.5818,0.5801,0.5794,0.5783,0.5781,0.5777,0.5766,0.5763,0.5743,0.5746,0.5734,0.571,0.5702,0.5695,0.5668,0.5671,0.5664,0.5651,0.5641,0.5638,0.5635,0.5627,0.5624,0.5662,0.5662,0.5662,0,0.5813,0.5792,0.5792,0.5777,0.5769,0.5774,0.5757,0.575,0.5735,0.573,0.5735,0.5707,0.5699,0.5676,0.567,0.5663,0.5659,0.5665,0.5638,0.5636,0.5634,0.5626,0.5623,0.5661,0.5661,0.5661,0.5661,0,0.5778,0.5764,0.5751,0.5739,0.573,0.5714,0.5712,0.5703,0.5704,0.5701,0.5682,0.5673,0.5659,0.5654,0.5653,0.5631,0.5635,0.5639,0.5648,0.563,0.5622,0.5619,0.566,0.566,0.566,0.5661,0,0,0.574,0.573,0.5726,0.5721,0.5711,0.57,0.5685,0.5673,0.5666,0.5656,0.5645,0.5625,0.5631,0.5623,0.5622,0.5612,0.5594,0.5618,0.5618,0.5615,0.5571,0.5568,0.5564,0.5596,0.5595,0.5595,0.5573,0,0.5713,0.5688,0.5688,0.5665,0.5653,0.5658,0.5645,0.5638,0.5635,0.5625,0.5622,0.5609,0.5616,0.5612,0.5602,0.5598,0.5585,0.56,0.5585,0.5585,0.5588,0.556,0.5556,0.5536,0.5569,0.5569,0.5569,0,0.5677,0.5668,0.5644,0.5638,0.5633,0.5622,0.5612,0.5602,0.5594,0.5593,0.5586,0.5588,0.5574,0.5584,0.5565,0.5575,0.5569,0.5566,0.5566,0.5564,0.5575,0.5559,0.5529,0.5526,0.5564,0.5564,0.5565,0,0.5654,0.5636,0.562,0.5616,0.5608,0.56,0.5597,0.559,0.5584,0.5575,0.5571,0.556,0.5555,0.5547,0.5546,0.5553,0.5527,0.5537,0.5526,0.5526,0.552,0.5521,0.5489,0.5516,0.5516,0.5516,0.5516,0,0.5623,0.5609,0.561,0.56,0.5584,0.5585,0.557,0.5567,0.5562,0.5552,0.5555,0.5546,0.5545,0.5536,0.5535,0.552,0.5517,0.5516,0.5516,0.5516,0.5516,0.5512,0.5514,0.5515,0.5515,0.5516,0.5516,0,0.5594,0.5595,0.5578,0.5573,0.5572,0.556,0.5557,0.5548,0.5546,0.5534,0.5531,0.5529,0.5518,0.5517,0.5504,0.5503,0.5486,0.5487,0.5489,0.5489,0.5479,0.548,0.5444,0.544,0.5469,0.5469,0.5468,0,0.5575,0.5564,0.556,0.5554,0.555,0.5541,0.5535,0.5537,0.553,0.5523,0.5515,0.5505,0.5497,0.548,0.5477,0.5468,0.5469,0.5457,0.5467,0.5468,0.547,0.5471,0.547,0.5455,0.5455,0.5454,0.5454,0,0.5541,0.5543,0.5534,0.5527,0.552,0.5514,0.5508,0.5503,0.5505,0.5497,0.5487,0.5482,0.547,0.546,0.5452,0.5448,0.5452,0.5451,0.5449,0.5448,0.545,0.545,0.5484,0.5452,0.5452,0.5452,0.5452,0.5452,0.5517,0.5508,0.5505,0.5496,0.5493,0.5488,0.548,0.5479,0.5471,0.5462,0.5464,0.5453,0.5448,0.5437,0.5434,0.5425,0.5429,0.5425,0.5424,0.5423,0.5423,0.5452,0.5424,0.5424,0.5424,0.5424,0.5424,0,0.5484,0.5483,0.5475,0.5468,0.5462,0.5467,0.5462,0.5456,0.5447,0.5443,0.5436,0.5426,0.5417,0.5415,0.5407,0.5401,0.5402,0.5399,0.5399,0.5399,0.5419,0.5423,0.5398,0.5398,0.5398,0.5398,0.5398,0.5398,0.5466,0.5453,0.5454,0.544,0.5439,0.5429,0.5426,0.5422,0.5419,0.5408,0.5401,0.5401,0.5397,0.539,0.5383,0.5382,0.5379,0.5375,0.5376,0.5394,0.5397,0.5399,0.5403,0.5374,0.5374,0.5356,0.5356,0.5356]}]]